Skip Page Navigation
NASA JPL Caltech
NASA Logo - Jet Propulsion Laboratory + View the NASA Portal
+ Center for Near-Earth Object Studies
JPL Home Earth Solar System Stars & Galaxies Technology
JPL Solar System Dynamics
BODIES ORBITS EPHEMERIDES TOOLS PHYSICAL DATA DISCOVERY FAQ SITE MAP
JPL Small-Body Database Browser
Search: [ help ]  
160096 (2000 QJ118)
Classification: Main-belt Asteroid          SPK-ID: 2160096
Ephemeris | Orbit Diagram | Orbital Elements | Mission Design | Physical Parameters | Discovery Circumstances | Close-Approach Data ]

[ show orbit diagram ]
Orbital Elements at Epoch 2459200.5 (2020-Dec-17.0) TDB
Reference: JPL 22 (heliocentric ecliptic J2000)
 Element Value Uncertainty (1-sigma)   Units 
e .06279727114263207 3.8561e-08  
a 2.354562275235145 1.06e-08 au
q 2.206702189614991 9.0393e-08 au
i 6.538226434677948 5.4063e-06 deg
node 309.2267323563867 3.2955e-05 deg
peri 139.1122312427499 5.3261e-05 deg
M 129.2077524902245 4.12e-05 deg
tp 2458726.858475266946
(2019-Aug-31.35847527)
0.00015082 TDB
period 1319.665001655376
3.61
8.9114e-06
2.44e-08
d
yr
n .272796504831468 1.8421e-09 deg/d
Q 2.5024223608553 1.1265e-08 au
  Orbit Determination Parameters
   # obs. used (total)      617  
   data-arc span      7180 days (19.66 yr)  
   first obs. used      2000-08-25  
   last obs. used      2020-04-22  
   planetary ephem.      DE441  
   SB-pert. ephem.      SB441-N16  
   condition code      0  
   norm. resid. RMS      .56916  
   source      ORB  
   producer      Otto Matic  
   solution date      2021-Apr-13 19:59:53  

Additional Information
 Earth MOID = 1.2276 au 
 Jupiter MOID = 2.60405 au 
 T_jup = 3.544 
[ hide covariance matrix ]
Orbital Elements at Epoch 2457293.5 (2015-Sep-28.0) TDB
Reference: JPL 22 (heliocentric ecliptic J2000)
 Element Value Uncertainty (1-sigma)   Units 
e .0618401144697294 3.8701e-08  
q 2.209313569796628 9.0657e-08 au
tp 2457408.005270278594
(2016-Jan-20.50527028)
0.00015306 TDB
node 309.3031002088495 3.293e-05 deg
peri 139.4506941044398 5.375e-05 deg
i 6.540301506432131 5.4081e-06 deg
  Orbit Determination Parameters
   # obs. used (total)      617  
   data-arc span      7180 days (19.66 yr)  
   first obs. used      2000-08-25  
   last obs. used      2020-04-22  
   planetary ephem.      DE441  
   SB-pert. ephem.      SB441-N16  
   condition code      0  
   norm. resid. RMS      .56916  
   source      ORB  
   producer      Otto Matic  
   solution date      2021-Apr-13 19:59:53  

Additional Information
 Jupiter MOID = 2.60405 au 
 T_jup = 3.544 
Orbit Covariance (6×6)
  e q tp node peri i
e 1.497788451277E-15 -3.487562781684194E-15 2.269912424287878E-12 9.93262121311094E-16 6.22256047703841E-13 -3.585906947218653E-16
q -3.487562781684194E-15 8.218764065100038E-15 -5.352886073347898E-12 -3.004892618989848E-15 -1.470540333944709E-12 1.062078460623391E-15
tp 2.269912424287878E-12 -5.352886073347898E-12 2.342739232576991E-8 1.225615757570221E-11 6.512361533204334E-9 1.693347561627995E-12
node 9.93262121311094E-16 -3.004892618989848E-15 1.225615757570221E-11 1.084368016136225E-9 -1.073174435482227E-9 3.337694871219264E-11
peri 6.22256047703841E-13 -1.470540333944709E-12 6.512361533204334E-9 -1.073174435482227E-9 2.889064756925274E-9 -3.272879327528444E-11
i -3.585906947218653E-16 1.062078460623391E-15 1.693347561627995E-12 3.337694871219264E-11 -3.272879327528444E-11 2.924806282656329E-11

Ephemeris | Orbit Diagram | Orbital Elements | Mission Design | Physical Parameters | Discovery Circumstances | Close-Approach Data ]

Physical Parameter Table
Parameter Symbol Value Units Sigma Reference Notes
absolute magnitude H 16.14   n/a E2021B55  

160096 (2000 QJ118)          Discovered 2000-Aug-25 by LINEAR at Socorro
Reference: 20070730/Numbers.arcLast Updated: 2007-08-06

[ show close-approach data ]
Ephemeris | Orbit Diagram | Orbital Elements | Mission Design | Physical Parameters | Discovery Circumstances | Close-Approach Data ]
ABOUT SSD CREDITS/AWARDS PRIVACY/COPYRIGHT GLOSSARY LINKS
FirstGov 2021-May-08 14:43 UT
(server date/time)  
NASA Home Page
Site Manager:   Ryan S. Park
Webmaster  Alan B. Chamberlin